Theta_e
358 356 360 362 362 362 361 362 362 362 362 363 362 362 362 361 360 360 359 359 359 355 350 350 353 355 359 362 361 356 353 350
357 359 357 361 361 361 360 361 361 362 361 362 362 362 361 361 359 359 358 359 358 354 350 350 352 357 360 360 357 353 350 348
357 361 361 361 361 361 360 360 361 361 361 361 361 360 360 359 359 358 358 358 357 354 350 351 353 358 360 359 354 351 349 350
360 360 362 360 360 359 360 359 359 360 360 360 360 360 360 359 358 357 357 357 355 354 351 350 354 360 360 357 353 350 349 345
359 359 360 361 359 357 356 359 359 359 360 360 360 360 359 358 357 356 355 356 355 353 351 350 352 359 358 356 353 349 346 344
357 359 360 359 359 359 357 358 358 358 358 359 358 359 356 351 353 352 353 355 354 353 351 350 350 357 357 354 351 348 346 348
353 358 361 361 361 360 357 360 357 353 351 351 350 354 350 348 352 348 352 353 353 353 351 350 351 353 357 356 353 349 351 346
338 357 361 366 366 362 359 359 358 355 353 351 352 353 352 349 352 348 349 346 347 352 347 345 348 349 354 355 357 354 350 349
328 339 356 364 366 365 362 359 359 357 356 354 354 356 352 350 349 348 346 345 345 344 345 346 343 349 353 357 355 354 353 350
326 332 345 359 365 365 366 361 360 359 356 357 355 355 352 349 349 348 348 346 343 343 344 345 342 345 350 354 357 356 354 352
325 330 339 353 362 361 364 363 361 361 359 357 356 355 356 351 355 348 348 348 346 344 343 342 343 342 346 351 355 357 355 353
327 332 339 349 358 359 362 362 361 362 358 357 355 358 357 355 352 349 347 346 347 347 346 345 345 346 341 347 353 357 356 353
330 333 341 339 348 359 361 360 361 361 358 357 355 355 358 355 351 354 348 348 348 349 347 344 345 344 342 341 346 352 353 353
331 334 342 347 348 358 362 359 360 360 357 356 357 354 357 352 353 353 348 349 353 349 348 346 346 346 343 343 344 352 353 351
331 334 342 347 353 359 357 358 355 352 354 357 357 356 357 354 355 354 349 346 351 350 348 347 348 348 347 343 342 346 348 349
331 336 343 348 355 355 351 346 343 339 342 343 345 352 355 356 356 357 351 349 353 348 351 351 349 348 346 348 346 346 346 349
331 334 342 348 354 355 349 348 342 339 337 338 341 349 353 352 355 354 355 353 348 345 350 352 350 344 344 350 344 347 337 341
330 333 337 347 351 354 353 352 353 351 351 344 341 343 348 353 354 356 354 353 353 351 345 348 347 348 340 348 351 342 335 332
327 331 333 341 349 352 355 352 354 339 333 330 334 336 346 351 350 351 354 353 354 349 350 351 350 348 346 340 346 348 351 345
Wind_Speed
14 13 16 12 13 12 12 12 12 13 13 14 14 14 14 13 12 11 12 10 10 10 9 7 7 7 7 11 14 14 12 9
14 14 15 11 11 11 13 12 11 11 12 13 13 13 13 12 11 11 10 10 10 10 9 7 6 9 10 12 13 12 10 6
12 12 14 12 11 10 10 10 10 10 10 10 10 11 11 11 11 10 10 9 9 9 8 6 5 8 11 12 12 11 8 6
11 11 13 13 12 11 11 10 9 9 10 10 10 9 8 9 10 10 9 9 9 9 8 7 5 7 11 11 12 10 7 5
10 11 11 11 13 12 12 11 11 10 10 9 9 9 8 8 9 9 9 9 9 9 9 7 6 10 11 10 10 9 7 4
7 9 9 11 11 10 11 12 11 10 10 9 10 9 9 10 11 13 7 12 9 8 8 9 7 8 10 10 10 10 10 4
9 9 8 8 8 9 7 10 10 11 10 10 11 11 10 9 7 5 10 9 9 9 7 8 9 9 13 10 7 9 6 5
7 8 9 8 8 9 8 7 6 6 7 8 11 9 10 7 7 7 7 8 8 9 8 9 9 9 11 6 9 8 6 6
7 5 7 9 9 9 6 7 6 6 7 7 9 11 8 6 7 7 5 7 6 8 7 7 7 7 6 7 7 6 7 6
7 7 8 8 8 8 8 6 6 7 7 7 7 10 8 8 6 7 6 6 6 6 7 7 6 7 9 8 8 7 8 7
11 9 8 8 7 8 8 7 6 6 6 7 7 8 12 9 3 7 7 7 6 6 6 7 7 7 8 8 8 6 6 6
10 8 9 9 8 9 10 8 7 6 6 6 6 8 10 10 9 5 7 7 7 7 7 6 6 7 7 8 8 8 7 8
10 11 8 8 10 10 8 5 7 6 5 4 7 6 11 12 5 8 8 7 7 7 7 7 8 8 8 8 8 7 9 8
11 11 10 10 10 10 9 8 7 5 5 5 5 4 9 10 11 9 6 6 6 8 8 7 8 8 8 8 8 5 5 7
9 11 10 10 9 9 7 6 6 5 6 5 6 6 8 7 9 9 8 5 7 9 9 8 8 8 8 8 8 7 7 6
10 11 12 12 11 9 8 8 7 7 6 5 5 6 7 8 9 10 8 7 7 10 10 8 9 10 8 7 4 5 6 8
12 13 12 12 12 10 8 6 4 5 5 5 5 6 8 9 8 8 9 8 8 5 5 10 10 9 9 6 8 5 6 6
12 13 14 13 12 12 10 7 6 4 4 6 6 7 8 9 9 10 10 9 8 9 9 6 6 10 7 8 13 7 5 8
11 10 11 11 12 11 11 9 10 8 8 6 4 4 3 5 8 10 11 11 10 8 9 10 10 10 7 9 8 11 9 11
Wind_Direction
150 148 133 151 146 146 148 143 143 144 148 149 149 145 141 142 141 139 139 143 139 137 132 127 113 110 113 123 121 122 128 157
146 137 150 147 147 153 156 152 148 150 151 151 151 148 146 146 145 141 140 143 140 137 134 126 117 125 132 126 126 133 143 197
139 139 136 141 146 153 159 162 156 153 150 151 151 150 150 147 145 146 145 144 141 134 131 123 122 135 145 136 138 141 152 224
146 150 154 160 156 158 160 163 164 161 157 156 153 153 157 149 147 149 148 144 141 131 129 125 116 125 142 143 145 150 159 252
161 158 162 168 170 173 165 168 171 172 168 163 161 160 162 152 150 153 149 151 149 142 137 141 134 135 143 145 145 146 156 237
166 164 180 175 169 185 168 161 174 179 181 174 177 174 171 200 178 159 118 141 158 155 151 150 151 154 147 147 151 159 181 178
184 189 188 199 174 183 180 164 194 182 197 198 195 186 218 212 190 206 135 152 167 167 168 164 166 166 191 166 167 180 225 145
183 187 201 182 187 204 192 183 193 194 194 197 206 205 212 195 191 209 171 177 182 188 188 191 179 205 209 172 161 195 138 182
210 201 197 188 193 208 204 194 203 206 196 201 196 196 213 213 194 216 211 199 192 175 206 204 199 220 209 230 189 194 170 178
259 213 200 192 196 205 209 203 218 209 202 206 205 196 206 213 206 202 203 217 202 194 190 199 225 206 211 214 219 206 189 172
230 226 207 202 194 206 226 216 221 215 187 221 206 212 202 207 225 219 204 216 213 217 206 211 206 209 226 222 212 203 207 186
228 233 216 208 200 200 215 202 229 223 212 196 215 208 215 204 206 264 226 224 216 214 222 213 209 217 222 227 237 196 210 202
235 219 221 221 192 199 207 186 218 202 216 200 200 211 196 207 238 200 234 229 232 223 215 213 212 213 217 220 224 209 202 177
226 220 213 212 215 183 185 169 215 199 197 244 205 214 191 212 201 220 258 253 235 243 232 222 216 229 222 233 228 227 207 182
218 212 216 203 203 184 173 183 194 191 209 206 197 200 206 220 206 214 214 226 282 254 236 226 233 220 243 217 221 180 201 204
212 207 203 196 186 188 184 193 192 196 195 204 214 203 217 212 205 202 218 229 223 242 254 222 229 223 226 225 235 214 191 205
210 207 205 202 187 200 191 213 224 208 202 217 207 212 222 226 222 223 222 210 215 244 253 238 226 243 214 215 222 211 206 202
211 199 200 198 196 201 211 193 196 213 237 222 217 225 222 238 236 232 234 238 215 214 217 205 230 218 228 226 224 231 223 234
201 196 191 197 203 201 195 210 218 228 229 219 242 273 288 257 250 241 241 241 232 227 220 211 205 201 214 224 211 228 264 309